一网星座-0426星 (ONEWEB-0426 )

导读 | 豆包AI

ONEWEB-0426是英国OneWeb公司全球低轨卫星互联网星座的组成卫星,于北京时间2021年12月27日,由俄罗斯联盟2-1b火箭搭载,和同批次共36颗OneWeb卫星从拜科努尔发射场成功发射。本次发射将OneWeb已发射卫星总数从358颗提升至394颗,该卫星进入倾角87.4°、高度约450km的极地轨道,为后续搭建全球宽带互联网服务提供支撑。

基本信息
目录编号:
50498
目录名称:
ONEWEB-0426
国际标识:
2021-132AF
轨道中心:
EARTH
卫星名称:
一网星座-0426星
卫星全名:
一网星座-0426星 (ONEWEB-0426 )
卫星状态:
在轨 (已飞行1538 天)
发射日期:
2021-12-27 UTC
国别 :
英国 (GB)
星等 :
--
轨道信息
数据来源 国际轨道数据
星历时间: 2026-03-13T15:55:24+0800
23小时前
查看轨道信息
半长轴: 7567.884km
偏心率: 0.0001205
轨道倾角: 87.925°
近地点辐角 65.274°
升交点赤经 354.485°
平近点角 294.852°
近地点: 1188.835km
远地点: 1190.659km
周期: 109.200分钟
每日圈数: 13.186851
详细信息
平衡模式:
三轴稳定
覆盖范围:
全球
运营商:
一网卫星公司
运营商所在国:
英国
制造商(研发单位):
一网卫星公司
制造商所在国:
英国
使用方式:
暂无
卫星简介
OneWeb卫星网络由648颗重约125公斤的微型卫星组成,运行在1200公里的轨道上。 每颗卫星都能够提供至少每秒8千兆位的吞吐量,以使用其高吞吐量的Ku频段有效载荷为家庭和移动平台提供互联网接入。该卫星仍在工作。
2D轨道图
3D轨道图
轨道高度分析图
轨道倾角分析图
轨道综合分析图
查看轨道综合分析图